NOAA 20 (JPSS-1)

Last updated on Sat Sep 05 2026 00:02:40 GMT+0000 (Coordinated Universal Time)

1 43013U 17073A 26247.58009422 .00000034 00000+0 37160-4 0 9997 2 43013 98.7801 186.3468 0001816 61.9220 298.2140 14.19524271455734
UTC large
Height (km)
Speed (km/s)
/
Latitude / Longitude
Inclination (degrees)
Orbital Period (minutes)
Azimuth
Elevation
Range (km)
Doppler Factor

Next 0 passes for location: London (51.5072 / 0.1276)

No passes found over London.
NOAA 20 (JPSS-1)